Saginaw, MI

8:03 AM EDT on April 27, 2017 (GMT -0400)
MBS International

Weather History for KMBS - December, 2010

Change the Weather History Date:

Monday, December 20, 2010

  Actual Average Record
Temperature  
Mean Temperature 24 °F 26 °F  
Max Temperature 28 °F 32 °F 47 °F (2015)
Min Temperature 19 °F 20 °F -4 °F (2004)
Degree Days  
Heating Degree Days 42    
Month to date heating degree days  
Since 1 July heating degree days  
Cooling Degree Days 0    
Month to date cooling degree days  
Year to date cooling degree days  
Moisture  
Dew Point 18 °F    
Average Humidity 82    
Maximum Humidity 92    
Minimum Humidity 71    
Precipitation  
Precipitation 0.00 in 0.06 in 0.48 in (2012)
Month to date precipitation 1.24  
Year to date precipitation 30.92  
Snow  
Snow 0.00 in - - ()
Month to date snowfall  
Since 1 July snowfall  
Snow Depth -    
Sea Level Pressure  
Sea Level Pressure 30.16 in    
Wind  
Wind Speed 7 mph (West)    
Max Wind Speed 9 mph    
Max Gust Speed -    
Visibility 9 miles    
Events      
T = Trace of Precipitation, MM = Missing Value Source: NWS Daily Summary

Daily Weather History Graph

Daily Weather History Graph

Search for Another Location

Airport or City:

Trip Planner

Search our weather history database for the weather conditions in past years. The results will help you decide how hot, cold, wet, or windy it might be!

Date:

Astronomy

Dec. 20, 2010 Rise Set
Actual Time 8:05 AM EST 5:02 PM EST
Civil Twilight 7:32 AM EST 5:35 PM EST
Nautical Twilight 6:56 AM EST 6:11 PM EST
Astronomical Twilight 6:21 AM EST 6:46 PM EST
Moon 4:28 PM EST (12/20) 7:28 AM EST (12/20)
Length of Visible Light 10h 02m
Length of Day
8h 56m
Waxing Gibbous, 99% of the Moon is Illuminated
Dec 20
Waxing Gibbous
Dec 21
Full
Dec 27
Last Quarter
Jan 4
New
Jan 12
First Quarter

Hourly Weather History & Observations

Time (EST) Temp. Windchill Dew Point Humidity Pressure Visibility Wind Dir Wind Speed Gust Speed Precip Events Conditions
12:53 AM 24.1 °F 15.2 °F 19.9 °F 84% 30.10 in 8.0 mi West 8.1 mph - N/A   Mostly Cloudy
1:10 AM 23.0 °F 14.7 °F 19.4 °F 86% 30.08 in 10.0 mi WNW 6.9 mph - N/A   Mostly Cloudy
1:29 AM 23.0 °F 14.7 °F 19.4 °F 86% 30.08 in 10.0 mi WNW 6.9 mph - N/A   Mostly Cloudy
1:53 AM 24.1 °F 15.2 °F 19.0 °F 81% 30.11 in 10.0 mi West 8.1 mph - N/A   Overcast
2:20 AM 24.8 °F 15.3 °F 19.4 °F 80% 30.08 in 10.0 mi West 9.2 mph - N/A   Mostly Cloudy
2:53 AM 24.8 °F 16.1 °F 19.4 °F 80% 30.09 in 10.0 mi West 8.1 mph - N/A   Overcast
3:08 AM 24.8 °F 15.3 °F 19.4 °F 80% 30.09 in 10.0 mi West 9.2 mph - N/A   Overcast
3:53 AM 24.1 °F 16.0 °F 19.0 °F 81% 30.12 in 10.0 mi WNW 6.9 mph - N/A   Overcast
4:53 AM 24.1 °F 15.2 °F 19.0 °F 81% 30.12 in 10.0 mi West 8.1 mph - N/A   Overcast
5:53 AM 24.1 °F 14.4 °F 19.0 °F 81% 30.14 in 10.0 mi WNW 9.2 mph - N/A   Overcast
6:53 AM 24.1 °F 15.2 °F 19.0 °F 81% 30.15 in 10.0 mi West 8.1 mph - N/A   Overcast
7:50 AM 21.2 °F 13.6 °F 17.6 °F 86% 30.14 in 10.0 mi WNW 5.8 mph - N/A   Scattered Clouds
7:53 AM 21.2 °F 13.6 °F 17.6 °F 86% 30.14 in 10.0 mi WNW 5.8 mph - N/A   Partly Cloudy
8:53 AM 19.9 °F 12.1 °F 17.1 °F 89% 30.19 in 9.0 mi WSW 5.8 mph - N/A   Scattered Clouds
9:53 AM 21.0 °F 11.4 °F 17.1 °F 85% 30.20 in 10.0 mi West 8.1 mph - N/A   Clear
10:53 AM 21.9 °F 13.4 °F 17.1 °F 82% 30.22 in 10.0 mi West 6.9 mph - N/A   Clear
11:53 AM 24.1 °F 19.7 °F 18.0 °F 77% 30.19 in 10.0 mi SW 3.5 mph - N/A   Clear
12:53 PM 26.1 °F 20.5 °F 19.0 °F 75% 30.18 in 10.0 mi WSW 4.6 mph - N/A   Clear
1:53 PM 27.0 °F 19.5 °F 19.0 °F 72% 30.18 in 10.0 mi SW 6.9 mph - N/A   Clear
2:53 PM 28.0 °F 21.7 °F 19.9 °F 72% 30.19 in 10.0 mi SW 5.8 mph - N/A   Clear
3:53 PM 27.0 °F 18.0 °F 19.0 °F 72% 30.21 in 10.0 mi SW 9.2 mph - N/A   Clear
4:53 PM 26.1 °F 20.5 °F 18.0 °F 71% 30.21 in 10.0 mi SW 4.6 mph - N/A   Clear
5:53 PM 21.9 °F 17.2 °F 17.1 °F 82% 30.22 in 10.0 mi SW 3.5 mph - N/A   Clear
6:53 PM 21.9 °F 15.7 °F 17.1 °F 82% 30.22 in 9.0 mi SW 4.6 mph - N/A   Clear
7:53 PM 19.9 °F 12.1 °F 16.0 °F 85% 30.20 in 8.0 mi SW 5.8 mph - N/A   Clear
8:53 PM 19.9 °F 14.9 °F 18.0 °F 92% 30.20 in 7.0 mi WSW 3.5 mph - N/A   Clear
9:53 PM 19.9 °F 11.1 °F 17.1 °F 89% 30.22 in 6.0 mi WSW 6.9 mph - N/A   Clear
10:53 PM 21.0 °F 16.2 °F 18.0 °F 88% 30.21 in 7.0 mi West 3.5 mph - N/A   Clear
11:53 PM 21.9 °F - 18.0 °F 85% 30.21 in 7.0 mi Calm Calm - N/A   Clear